DW6400 Weather Reports


time (UTC)temp
C
wind
direction
speed
KPH
gust
KPH
rain 1hr
cm
rain 24hr
cm
rain mn
cm
humidity
%
barometer
mb
20171211131739 -3 135 4.8 8.0 0.00 0.00 0.00 31 1029.2
20171211130250 -3 135 1.6 8.0 0.00 0.00 0.00 33 1029.2
20171211124737 -3 135 0.0 4.8 0.00 0.00 0.00 34 1029.3
20171211123234 -4 135 3.2 14.5 0.00 0.00 0.00 36 1029.3
20171211121721 -5 135 0.0 3.2 0.00 0.00 0.00 36 1029.3
20171211120231 -4 136 0.0 1.6 0.00 0.00 0.00 36 1029.3
20171211114712 -3 135 0.0 6.4 0.00 0.00 0.00 36 1029.3
20171211113229 -5 135 0.0 3.2 0.00 0.00 0.00 37 1029.5
20171211111715 -5 135 0.0 0.0 0.00 0.00 0.00 39 1029.5
20171211110157 -4 135 0.0 0.0 0.00 0.00 0.00 37 1029.7
20171211104710 -5 135 0.0 3.2 0.00 0.00 0.00 37 1030.0
20171211103152 -4 136 0.0 1.6 0.00 0.00 0.00 38 1029.9
20171211101644 -4 136 0.0 3.2 0.00 0.00 0.00 36 1029.8
20171211100147 -3 135 0.0 0.0 0.00 0.00 0.00 36 1029.7
20171211094638 -3 136 0.0 3.2 0.00 0.00 0.00 35 1029.8
20171211093135 -3 135 0.0 1.6 0.00 0.00 0.00 34 1029.8
20171211091633 -3 135 0.0 3.2 0.00 0.00 0.00 34 1029.7
20171211090124 -3 135 0.0 0.0 0.00 0.00 0.00 32 1029.7
20171211084618 -3 135 0.0 0.0 0.00 0.00 0.00 33 1029.4
20171211083127 -2 135 0.0 0.0 0.00 0.00 0.00 30 1029.4
20171211081611 -2 136 0.0 0.0 0.00 0.00 0.00 29 1029.2
20171211080104 -2 136 0.0 0.0 0.00 0.00 0.00 29 1029.1
20171211074601 -2 135 0.0 3.2 0.00 0.00 0.00 28 1029.0
20171211073056 -1 136 0.0 3.2 0.00 0.00 0.00 28 1029.1
20171211071550 -1 136 1.6 8.0 0.00 0.00 0.00 28 1029.3
20171211070045 -2 136 4.8 12.9 0.00 0.00 0.00 29 1029.2
20171211064544 -3 132 4.8 8.0 0.00 0.00 0.00 33 1029.3
20171211063050 -3 132 0.0 3.2 0.00 0.00 0.00 31 1029.6
20171211061538 -2 132 0.0 0.0 0.00 0.00 0.00 30 1029.7
20171211060113 -2 132 0.0 4.8 0.00 0.00 0.00 28 1030.0
20171211054653 -1 132 0.0 1.6 0.00 0.00 0.00 26 1030.1
20171211053038 -1 131 1.6 11.3 0.00 0.00 0.00 26 1030.0
20171211051538 -1 131 3.2 11.3 0.00 0.00 0.00 27 1029.8
20171211050045 -2 131 0.0 3.2 0.00 0.00 0.00 28 1029.8
20171211044531 -2 131 0.0 8.0 0.00 0.00 0.00 28 1029.9
20171211043028 -2 131 0.0 6.4 0.00 0.00 0.00 28 1029.7
20171211041527 -1 131 3.2 8.0 0.00 0.00 0.00 26 1029.8
20171211040016 -1 131 1.6 11.3 0.00 0.00 0.00 26 1029.8
20171211034517 0 131 0.0 4.8 0.00 0.00 0.00 23 1029.7
20171211033024 0 131 0.0 4.8 0.00 0.00 0.00 22 1029.8
20171211031504 0 131 1.6 6.4 0.00 0.00 0.00 23 1029.7
20171211030001 0 131 0.0 8.0 0.00 0.00 0.00 23 1029.6
20171211024457 0 131 3.2 12.9 0.00 0.00 0.00 22 1029.5
20171211022952 0 130 6.4 12.9 0.00 0.00 0.00 22 1029.7
20171211021449 0 123 4.8 11.3 0.00 0.00 0.00 22 1029.9
20171211015943 1 122 1.6 6.4 0.00 0.00 0.00 22 1030.0
20171211014441 1 122 4.8 12.9 0.00 0.00 0.00 20 1030.1
20171211012943 1 9 0.0 4.8 0.00 0.00 0.00 21 1030.1
20171211011428 2 9 0.0 6.4 0.00 0.00 0.00 19 1030.0
20171211005924 2 355 0.0 3.2 0.00 0.00 0.00 18 1029.9
20171211004421 3 355 0.0 0.0 0.00 0.00 0.00 17 1029.7
20171211002917 4 355 0.0 0.0 0.00 0.00 0.00 18 1029.6
20171211001434 6 355 0.0 0.0 0.00 0.00 0.00 15 1029.4
20171210235920 8 355 0.0 0.0 0.00 0.00 0.00 14 1029.3
20171210234421 11 355 0.0 0.0 0.00 0.00 0.00 10 1029.2
20171210232858 12 355 0.0 0.0 0.00 0.00 0.00 8 1029.2
20171210231353 13 355 0.0 1.6 0.00 0.00 0.00 6 1029.0
20171210225854 14 355 0.0 3.2 0.00 0.00 0.00 6 1029.0
20171210224350 15 355 0.0 1.6 0.00 0.00 0.00 5 1029.1
20171210222839 15 355 0.0 4.8 0.00 0.00 0.00 5 1029.1
20171210221334 15 355 0.0 3.2 0.00 0.00 0.00 5 1029.1
20171210215833 15 355 0.0 3.2 0.00 0.00 0.00 4 1029.0
20171210214330 15 355 0.0 4.8 0.00 0.00 0.00 5 1029.0
20171210212822 15 355 1.6 4.8 0.00 0.00 0.00 5 1029.1
20171210211320 15 355 0.0 6.4 0.00 0.00 0.00 6 1029.2
20171210205820 15 355 1.6 3.2 0.00 0.00 0.00 5 1029.2
20171210204314 16 355 1.6 6.4 0.00 0.00 0.00 5 1029.5
20171210202809 16 9 3.2 8.0 0.00 0.00 0.00 5 1029.5
20171210201258 16 134 1.6 6.4 0.00 0.00 0.00 5 1029.6
20171210195752 16 135 0.0 3.2 0.00 0.00 0.00 6 1029.9
20171210194248 16 135 0.0 6.4 0.00 0.00 0.00 5 1030.3
20171210192743 16 135 0.0 3.2 0.00 0.00 0.00 5 1030.7
20171210191246 15 135 0.0 3.2 0.00 0.00 0.00 7 1030.9
20171210185743 13 135 0.0 3.2 0.00 0.00 0.00 9 1031.1
20171210184230 12 136 1.6 4.8 0.00 0.00 0.00 10 1031.4
20171210182716 12 135 1.6 4.8 0.00 0.00 0.00 12 1031.4
20171210181430 11 136 0.0 4.8 0.00 0.00 0.00 12 1031.6
20171210175705 11 136 0.0 6.4 0.00 0.00 0.00 9 1031.8
20171210174214 10 136 0.0 1.6 0.00 0.00 0.00 16 1032.0
20171210172703 8 136 1.6 4.8 0.00 0.00 0.00 17 1032.2
20171210171111 7 135 0.0 1.6 0.00 0.00 0.00 16 1032.4
20171210165608 7 136 0.0 1.6 0.00 0.00 0.00 17 1032.5
20171210164106 5 136 0.0 4.8 0.00 0.00 0.00 20 1032.7
20171210162602 4 136 0.0 4.8 0.00 0.00 0.00 21 1032.7
20171210161051 3 135 0.0 3.2 0.00 0.00 0.00 22 1032.8
20171210155546 1 136 1.6 3.2 0.00 0.00 0.00 25 1032.8
20171210154042 -1 136 1.6 3.2 0.00 0.00 0.00 32 1032.8
20171210152544 -3 136 0.0 1.6 0.00 0.00 0.00 38 1032.7
20171210151038 -4 136 0.0 0.0 0.00 0.00 0.00 41 1032.8
20171210145528 -4 136 0.0 4.8 0.00 0.00 0.00 35 1033.0
20171210144025 -3 136 0.0 0.0 0.00 0.00 0.00 34 1032.9
20171210142518 -3 136 0.0 3.2 0.00 0.00 0.00 31 1033.0
20171210141016 -3 136 4.8 8.0 0.00 0.00 0.00 31 1033.0
20171210135516 -3 136 0.0 6.4 0.00 0.00 0.00 33 1033.1
20171210134022 -5 136 3.2 8.0 0.00 0.00 0.00 37 1032.9